COMSATBW-2

Last updated on Sun Apr 12 2026 00:02:52 GMT+0000 (Coordinated Universal Time)

1 36582U 10021B 26101.30942281 .00000089 00000+0 00000+0 0 9992 2 36582 0.0086 210.6413 0002792 187.1636 286.2761 1.00271169 58281
UTC large
Height (km)
Speed (km/s)
/
Latitude / Longitude
Inclination (degrees)
Orbital Period (minutes)
Azimuth
Elevation
Range (km)
Doppler Factor

Next 0 passes for location: London (51.5072 / 0.1276)

Sorry there are no passes over London.
COMSATBW-2